Regional Weather Roundup
Issued by NWS

Home | Current Version | Previous Version | Graphics & Text | Print | Product List | Glossary On
Versions: 1 2 3 4 5 6 7 8 9 10 11 12 13 14 15 16 17 18 19 20 21 22 23 24 25 26 27 28 29 30 31 32 33 34 35 36 37 38 39 40 41 42 43 44 45 46 47 48 49 50
000
ASUS44 KMEG 040900
RWRTN
TENNESSEE HOURLY STATE WEATHER ROUNDUP
NATIONAL WEATHER SERVICE MEMPHIS TN
300 AM CST SUN DEC 04 2016

TNZ002-004-019-021-049-052-054-088>092-041000-
WEST TENNESSEE

CITY           SKY/WX    TMP DP  RH WIND       PRES   REMARKS
MEMPHIS INTL   LGT RAIN  43  42  97 N6        30.07R FOG
NWS MEMPHIS      N/A     42 N/A N/A MISG        N/A
JACKSON        CLOUDY    42 N/A N/A NE3       30.09R
DYERSBURG      CLOUDY   N/A N/A N/A E8        30.10F
PARIS          CLOUDY    36  36 100 NE8       30.09F WCI  29
$$

TNZ008-025-027-028-033-062-065-066-041000-
NORTH MIDDLE TENNESSEE

CITY           SKY/WX    TMP DP  RH WIND       PRES   REMARKS
NASHVILLE      LGT RAIN  41  38  89 E7        30.15F FOG
CLARKSVILLE    LGT RAIN  39  36  89 E7        30.13F WCI  34
SMYRNA         LGT RAIN  40  39  97 E3        30.16F
CROSSVILLE     RAIN      37  35  92 E6        30.16S FOG     WCI  32
$$

TNZ061-075-076-078-094-096-097-041000-
SOUTH MIDDLE TENNESSEE

CITY           SKY/WX    TMP DP  RH WIND       PRES   REMARKS
WINCHESTER     CLOUDY    41  39  93 E3        30.16R
SHELBYVILLE    CLOUDY    43  43 100 E8        30.15F
$$

TNZ017-018-042-046-047-041000-
NORTHEAST TENNESSEE

CITY           SKY/WX    TMP DP  RH WIND       PRES   REMARKS
TRI CITIES     LGT RAIN  39  32  76 CALM      30.22R
$$

TNZ012-013-036-069-073-074-041000-
CENTRAL EAST TENNESSEE

CITY           SKY/WX    TMP DP  RH WIND       PRES   REMARKS
KNOXVILLE      RAIN      39  37  92 NE9       30.18F FOG     WCI  33
OAK RIDGE      LGT RAIN  40  37  89 CALM      30.22F FOG
GATLINBURG     CLOUDY    37  36  93 CALM      30.19F
$$

TNZ083-085-099-041000-
SOUTHEAST TENNESSEE

CITY           SKY/WX    TMP DP  RH WIND       PRES   REMARKS
CHATTANOOGA    RAIN      42  39  89 N5        30.18F FOG
$$

SKY/WX REPORTED AS FAIR MEANS FEW OR NO CLOUDS BELOW
12 THOUSAND FEET.





USA.gov is the U.S. government's official web portal to all federal, state and local government web resources and services.